NV6B Weather Reports


Display with metric or nautical units.
time (UTC)temp
F
wind
direction
speed
MPH
gust
MPH
rain 1hr
in
rain 24hr
in
rain mn
in
humidity
%
barometer
mb
20260902042509 66 347 0.0 0.0 0.00 0.00 0.00 49 1005.7
20260902041509 67 347 0.0 2.0 0.00 0.00 0.00 48 1005.7
20260902040509 68 347 0.0 2.0 0.00 0.00 0.00 47 1005.7
20260902035509 68 347 0.0 2.0 0.00 0.00 0.00 46 1005.8
20260902034509 69 347 1.0 3.0 0.00 0.00 0.00 46 1005.8
20260902033509 70 348 0.0 0.0 0.00 0.00 0.00 41 1005.7
20260902032509 71 348 0.0 1.0 0.00 0.00 0.00 40 1005.5
20260902031508 71 348 1.0 3.0 0.00 0.00 0.00 40 1005.4
20260902030509 72 348 2.0 3.0 0.00 0.00 0.00 39 1005.4
20260902025508 73 348 1.0 3.0 0.00 0.00 0.00 39 1005.4
20260902024508 73 348 1.0 3.0 0.00 0.00 0.00 38 1005.4
20260902023508 74 348 1.0 3.0 0.00 0.00 0.00 37 1005.5
20260902022508 75 348 2.0 3.0 0.00 0.00 0.00 37 1005.5
20260902021508 76 348 1.0 3.0 0.00 0.00 0.00 36 1005.6
20260901233507 82 257 2.0 5.0 0.00 0.00 0.00 25 1006.3
20260901232506 83 270 4.0 10.0 0.00 0.00 0.00 25 1006.5
20260901231506 83 316 3.0 9.0 0.00 0.00 0.00 27 1006.5
20260901230506 84 324 4.0 8.0 0.00 0.00 0.00 25 1006.6
20260901225526 84 316 7.0 9.0 0.00 0.00 0.00 26 1006.7
20260901224506 85 287 4.0 9.0 0.00 0.00 0.00 26 1007.0
20260901223506 85 287 3.0 7.0 0.00 0.00 0.00 27 1007.1
20260901222506 85 293 2.0 9.0 0.00 0.00 0.00 28 1007.1
20260901221506 86 317 5.0 7.0 0.00 0.00 0.00 26 1007.1
20260901220506 85 306 0.0 3.0 0.00 0.00 0.00 25 1007.2
20260901164502 70 193 3.0 11.0 0.00 0.00 0.00 48 1009.8
20260901163502 70 185 3.0 11.0 0.00 0.00 0.00 48 1009.8
20260901162502 70 163 4.0 12.0 0.00 0.00 0.00 46 1009.9
20260901161502 70 185 3.0 9.0 0.00 0.00 0.00 46 1009.9
20260901160502 71 190 3.0 8.0 0.00 0.00 0.00 46 1009.9
20260901155502 71 144 3.0 13.0 0.00 0.00 0.00 45 1009.8
20260901154502 70 148 2.0 9.0 0.00 0.00 0.00 45 1009.5
20260901131501 64 171 3.0 10.0 0.00 0.00 0.00 46 1009.0
20260901130501 64 158 2.0 10.0 0.00 0.00 0.00 45 1009.0
20260901125500 64 143 9.0 10.0 0.00 0.00 0.00 45 1009.0
20260901124500 64 167 1.0 9.0 0.00 0.00 0.00 45 1009.0
20260901123500 64 142 4.0 8.0 0.00 0.00 0.00 44 1008.8
20260901122500 64 153 7.0 8.0 0.00 0.00 0.00 44 1008.8
20260901121500 64 150 2.0 14.0 0.00 0.00 0.00 43 1008.8
20260901120500 63 125 1.0 9.0 0.00 0.00 0.00 44 1008.9
20260901115520 62 187 3.0 6.0 0.00 0.00 0.00 46 1008.9
20260901114500 62 203 1.0 6.0 0.00 0.00 0.00 47 1008.7
20260901113500 61 207 3.0 6.0 0.00 0.00 0.00 46 1008.8
20260901112500 62 131 0.0 0.0 0.00 0.00 0.00 44 1008.6
20260901083518 64 123 2.0 5.0 0.00 0.00 0.00 31 1008.7
20260901082458 64 95 3.0 9.0 0.00 0.00 0.00 31 1008.8
20260901081458 64 127 4.0 7.0 0.00 0.00 0.00 30 1009.0
20260901080458 64 116 2.0 6.0 0.00 0.00 0.00 29 1009.1
20260901075458 64 113 2.0 10.0 0.00 0.00 0.00 28 1009.2
20260901074458 63 120 1.0 7.0 0.00 0.00 0.00 29 1009.3
20260901045516 64 2 0.0 0.0 0.00 0.00 0.00 44 1010.1